﻿測定場所 (Monitoring sites),日付 (Measurement date),時間 (Measurement time),線量率 最大値 (max) μGy/h,線量率 最小値 (min) μGy/h,線量率 平均値 (average) μGy/h,
江戸川 (Edogawa),2012-10-21,23:01～24:00,0.107,0.0976,0.102,
江戸川 (Edogawa),2012-10-21,22:01～23:00,0.108,0.0963,0.101,
江戸川 (Edogawa),2012-10-21,21:01～22:00,0.110,0.0965,0.102,
江戸川 (Edogawa),2012-10-21,20:01～21:00,0.109,0.0974,0.103,
江戸川 (Edogawa),2012-10-21,19:01～20:00,0.107,0.0970,0.102,
江戸川 (Edogawa),2012-10-21,18:01～19:00,0.109,0.0939,0.103,
江戸川 (Edogawa),2012-10-21,17:01～18:00,0.111,0.0973,0.102,
江戸川 (Edogawa),2012-10-21,16:01～17:00,0.107,0.0939,0.102,
江戸川 (Edogawa),2012-10-21,15:01～16:00,0.108,0.0961,0.102,
江戸川 (Edogawa),2012-10-21,14:01～15:00,0.107,0.0962,0.102,
江戸川 (Edogawa),2012-10-21,13:01～14:00,0.107,0.0963,0.102,
江戸川 (Edogawa),2012-10-21,12:01～13:00,0.106,0.0966,0.102,
江戸川 (Edogawa),2012-10-21,11:01～12:00,0.109,0.0956,0.103,
江戸川 (Edogawa),2012-10-21,10:01～11:00,0.109,0.0967,0.103,
江戸川 (Edogawa),2012-10-21,09:01～10:00,0.108,0.0985,0.104,
江戸川 (Edogawa),2012-10-21,08:01～09:00,0.109,0.0966,0.102,
江戸川 (Edogawa),2012-10-21,07:01～08:00,0.108,0.0960,0.102,
江戸川 (Edogawa),2012-10-21,06:01～07:00,0.106,0.0953,0.101,
江戸川 (Edogawa),2012-10-21,05:01～06:00,0.107,0.0953,0.101,
江戸川 (Edogawa),2012-10-21,04:01～05:00,0.106,0.0944,0.101,
江戸川 (Edogawa),2012-10-21,03:01～04:00,0.107,0.0934,0.101,
江戸川 (Edogawa),2012-10-21,02:01～03:00,0.106,0.0952,0.101,
江戸川 (Edogawa),2012-10-21,01:01～02:00,0.106,0.0979,0.102,
江戸川 (Edogawa),2012-10-21,00:01～01:00,0.110,0.0937,0.102,
江戸川 (Edogawa),2012-10-20,23:01～24:00,0.105,0.0963,0.101,
江戸川 (Edogawa),2012-10-20,22:01～23:00,0.107,0.0954,0.101,
江戸川 (Edogawa),2012-10-20,21:01～22:00,0.108,0.0952,0.101,
江戸川 (Edogawa),2012-10-20,20:01～21:00,0.107,0.0915,0.101,
江戸川 (Edogawa),2012-10-20,19:01～20:00,0.107,0.0961,0.101,
江戸川 (Edogawa),2012-10-20,18:01～19:00,0.111,0.0963,0.101,
江戸川 (Edogawa),2012-10-20,17:01～18:00,0.110,0.0954,0.102,
江戸川 (Edogawa),2012-10-20,16:01～17:00,0.106,0.0965,0.101,
江戸川 (Edogawa),2012-10-20,15:01～16:00,0.106,0.0945,0.101,
江戸川 (Edogawa),2012-10-20,14:01～15:00,0.108,0.0951,0.102,
江戸川 (Edogawa),2012-10-20,13:01～14:00,0.108,0.0963,0.102,
江戸川 (Edogawa),2012-10-20,12:01～13:00,0.106,0.0922,0.0992,
江戸川 (Edogawa),2012-10-20,11:01～12:00,0.104,0.0959,0.0986,
江戸川 (Edogawa),2012-10-19,21:01～22:00,0.104,0.0952,0.100,
江戸川 (Edogawa),2012-10-19,20:01～21:00,0.108,0.0933,0.100,
江戸川 (Edogawa),2012-10-19,19:01～20:00,0.106,0.0959,0.100,
江戸川 (Edogawa),2012-10-19,18:01～19:00,0.106,0.0960,0.101,
江戸川 (Edogawa),2012-10-19,17:01～18:00,0.109,0.0952,0.101,
江戸川 (Edogawa),2012-10-19,16:01～17:00,0.107,0.0963,0.101,
江戸川 (Edogawa),2012-10-19,15:01～16:00,0.110,0.0958,0.102,
江戸川 (Edogawa),2012-10-19,14:01～15:00,0.107,0.0965,0.102,
江戸川 (Edogawa),2012-10-19,13:01～14:00,0.107,0.0960,0.101,
江戸川 (Edogawa),2012-10-19,12:01～13:00,0.107,0.0944,0.101,
江戸川 (Edogawa),2012-10-19,11:01～12:00,0.107,0.0962,0.101,
江戸川 (Edogawa),2012-10-19,10:01～11:00,0.110,0.0976,0.103,
江戸川 (Edogawa),2012-10-19,09:01～10:00,0.106,0.0944,0.100,
江戸川 (Edogawa),2012-10-19,08:01～09:00,0.104,0.0936,0.0997,
江戸川 (Edogawa),2012-10-19,07:01～08:00,0.106,0.0942,0.0995,
江戸川 (Edogawa),2012-10-19,06:01～07:00,0.106,0.0938,0.0997,
江戸川 (Edogawa),2012-10-19,05:01～06:00,0.109,0.0976,0.103,
江戸川 (Edogawa),2012-10-19,04:01～05:00,0.112,0.100,0.107,
江戸川 (Edogawa),2012-10-19,03:01～04:00,0.115,0.102,0.107,
江戸川 (Edogawa),2012-10-19,02:01～03:00,0.114,0.0997,0.107,
江戸川 (Edogawa),2012-10-19,01:01～02:00,0.110,0.0990,0.106,
江戸川 (Edogawa),2012-10-19,00:01～01:00,0.110,0.0953,0.103,
江戸川 (Edogawa),2012-10-18,23:01～24:00,0.107,0.0962,0.101,
江戸川 (Edogawa),2012-10-18,22:01～23:00,0.113,0.0952,0.105,
江戸川 (Edogawa),2012-10-18,21:01～22:00,0.114,0.0988,0.106,
江戸川 (Edogawa),2012-10-18,20:01～21:00,0.110,0.0979,0.104,
江戸川 (Edogawa),2012-10-18,19:01～20:00,0.108,0.0968,0.103,
江戸川 (Edogawa),2012-10-18,18:01～19:00,0.108,0.0951,0.102,
江戸川 (Edogawa),2012-10-18,17:01～18:00,0.111,0.0954,0.103,
江戸川 (Edogawa),2012-10-18,16:01～17:00,0.110,0.0999,0.105,
江戸川 (Edogawa),2012-10-18,15:01～16:00,0.109,0.0995,0.104,
江戸川 (Edogawa),2012-10-18,14:01～15:00,0.114,0.0977,0.106,
江戸川 (Edogawa),2012-10-18,13:01～14:00,0.115,0.0963,0.106,
江戸川 (Edogawa),2012-10-18,12:01～13:00,0.106,0.0964,0.102,
江戸川 (Edogawa),2012-10-18,11:01～12:00,0.107,0.0925,0.102,
江戸川 (Edogawa),2012-10-18,10:01～11:00,0.109,0.0966,0.102,
江戸川 (Edogawa),2012-10-18,09:01～10:00,0.107,0.0957,0.101,
江戸川 (Edogawa),2012-10-18,08:01～09:00,0.110,0.0954,0.103,
江戸川 (Edogawa),2012-10-18,07:01～08:00,0.109,0.0955,0.102,
江戸川 (Edogawa),2012-10-18,06:01～07:00,0.107,0.0937,0.101,
江戸川 (Edogawa),2012-10-18,05:01～06:00,0.107,0.0944,0.102,
江戸川 (Edogawa),2012-10-18,04:01～05:00,0.110,0.0950,0.100,
江戸川 (Edogawa),2012-10-18,03:01～04:00,0.106,0.0953,0.101,
江戸川 (Edogawa),2012-10-18,02:01～03:00,0.105,0.0947,0.100,
江戸川 (Edogawa),2012-10-18,01:01～02:00,0.105,0.0951,0.100,
江戸川 (Edogawa),2012-10-18,00:01～01:00,0.108,0.0956,0.102,
江戸川 (Edogawa),2012-10-17,23:01～24:00,0.107,0.0933,0.101,
江戸川 (Edogawa),2012-10-17,22:01～23:00,0.111,0.0969,0.103,
江戸川 (Edogawa),2012-10-17,21:01～22:00,0.109,0.0996,0.104,
江戸川 (Edogawa),2012-10-17,20:01～21:00,0.109,0.0941,0.101,
江戸川 (Edogawa),2012-10-17,19:01～20:00,0.112,0.0965,0.104,
江戸川 (Edogawa),2012-10-17,18:01～19:00,0.114,0.0973,0.107,
江戸川 (Edogawa),2012-10-17,17:01～18:00,0.113,0.101,0.107,
江戸川 (Edogawa),2012-10-17,16:01～17:00,0.113,0.102,0.107,
江戸川 (Edogawa),2012-10-17,15:01～16:00,0.114,0.0989,0.108,
江戸川 (Edogawa),2012-10-17,14:01～15:00,0.111,0.0975,0.105,
江戸川 (Edogawa),2012-10-17,13:01～14:00,0.109,0.0975,0.104,
江戸川 (Edogawa),2012-10-17,12:01～13:00,0.111,0.100,0.105,
江戸川 (Edogawa),2012-10-17,11:01～12:00,0.110,0.0977,0.104,
江戸川 (Edogawa),2012-10-17,10:01～11:00,0.111,0.100,0.105,
江戸川 (Edogawa),2012-10-17,09:01～10:00,0.111,0.100,0.105,
江戸川 (Edogawa),2012-10-17,08:01～09:00,0.111,0.0991,0.104,
江戸川 (Edogawa),2012-10-17,07:01～08:00,0.110,0.0983,0.104,
江戸川 (Edogawa),2012-10-17,06:01～07:00,0.111,0.0965,0.104,
江戸川 (Edogawa),2012-10-17,05:01～06:00,0.110,0.0978,0.103,
江戸川 (Edogawa),2012-10-17,04:01～05:00,0.108,0.0999,0.104,
江戸川 (Edogawa),2012-10-17,03:01～04:00,0.110,0.0988,0.104,
江戸川 (Edogawa),2012-10-17,02:01～03:00,0.109,0.0968,0.102,
江戸川 (Edogawa),2012-10-17,01:01～02:00,0.109,0.0960,0.103,
江戸川 (Edogawa),2012-10-17,00:01～01:00,0.109,0.0973,0.103,
江戸川 (Edogawa),2012-10-16,23:01～24:00,0.108,0.0963,0.103,
江戸川 (Edogawa),2012-10-16,22:01～23:00,0.110,0.0958,0.103,
江戸川 (Edogawa),2012-10-16,21:01～22:00,0.108,0.0984,0.103,
江戸川 (Edogawa),2012-10-16,20:01～21:00,0.110,0.0968,0.103,
江戸川 (Edogawa),2012-10-16,19:01～20:00,0.109,0.0986,0.103,
江戸川 (Edogawa),2012-10-16,18:01～19:00,0.110,0.0989,0.104,
江戸川 (Edogawa),2012-10-16,17:01～18:00,0.109,0.100,0.105,
江戸川 (Edogawa),2012-10-16,16:01～17:00,0.110,0.0970,0.104,
江戸川 (Edogawa),2012-10-16,15:01～16:00,0.110,0.0992,0.104,
江戸川 (Edogawa),2012-10-16,14:01～15:00,0.109,0.0967,0.104,
江戸川 (Edogawa),2012-10-16,13:01～14:00,0.111,0.0973,0.104,
江戸川 (Edogawa),2012-10-16,12:01～13:00,0.109,0.0992,0.105,
江戸川 (Edogawa),2012-10-16,11:01～12:00,0.111,0.0995,0.105,
江戸川 (Edogawa),2012-10-16,10:01～11:00,0.113,0.0996,0.104,
江戸川 (Edogawa),2012-10-16,09:01～10:00,0.112,0.0987,0.105,
江戸川 (Edogawa),2012-10-16,08:01～09:00,0.111,0.0956,0.104,
江戸川 (Edogawa),2012-10-16,07:01～08:00,0.112,0.0977,0.104,
江戸川 (Edogawa),2012-10-16,06:01～07:00,0.108,0.0954,0.102,
江戸川 (Edogawa),2012-10-16,05:01～06:00,0.109,0.0978,0.103,
江戸川 (Edogawa),2012-10-16,04:01～05:00,0.112,0.0996,0.104,
江戸川 (Edogawa),2012-10-16,03:01～04:00,0.110,0.0967,0.104,
江戸川 (Edogawa),2012-10-16,02:01～03:00,0.111,0.0978,0.104,
江戸川 (Edogawa),2012-10-16,01:01～02:00,0.109,0.0974,0.104,
江戸川 (Edogawa),2012-10-16,00:01～01:00,0.114,0.0979,0.104,
江戸川 (Edogawa),2012-10-15,23:01～24:00,0.109,0.0992,0.104,
江戸川 (Edogawa),2012-10-15,22:01～23:00,0.111,0.0989,0.104,
江戸川 (Edogawa),2012-10-15,21:01～22:00,0.108,0.0963,0.103,
江戸川 (Edogawa),2012-10-15,20:01～21:00,0.110,0.0953,0.104,
江戸川 (Edogawa),2012-10-15,19:01～20:00,0.109,0.0976,0.104,
江戸川 (Edogawa),2012-10-15,18:01～19:00,0.111,0.0976,0.104,
江戸川 (Edogawa),2012-10-15,17:01～18:00,0.110,0.100,0.104,
江戸川 (Edogawa),2012-10-15,16:01～17:00,0.110,0.0980,0.104,
江戸川 (Edogawa),2012-10-15,15:01～16:00,0.110,0.0969,0.104,
江戸川 (Edogawa),2012-10-15,14:01～15:00,0.113,0.0972,0.104,
江戸川 (Edogawa),2012-10-15,13:01～14:00,0.111,0.0987,0.104,
江戸川 (Edogawa),2012-10-15,12:01～13:00,0.109,0.0988,0.104,
江戸川 (Edogawa),2012-10-15,11:01～12:00,0.111,0.0967,0.103,
江戸川 (Edogawa),2012-10-15,10:01～11:00,0.110,0.0995,0.104,
江戸川 (Edogawa),2012-10-15,09:01～10:00,0.109,0.0964,0.104,
江戸川 (Edogawa),2012-10-15,08:01～09:00,0.110,0.0998,0.105,
江戸川 (Edogawa),2012-10-15,07:01～08:00,0.110,0.0973,0.104,
江戸川 (Edogawa),2012-10-15,06:01～07:00,0.111,0.0986,0.104,
江戸川 (Edogawa),2012-10-15,05:01～06:00,0.113,0.0986,0.104,
江戸川 (Edogawa),2012-10-15,04:01～05:00,0.110,0.0982,0.104,
江戸川 (Edogawa),2012-10-15,03:01～04:00,0.107,0.0972,0.103,
江戸川 (Edogawa),2012-10-15,02:01～03:00,0.109,0.0991,0.104,
江戸川 (Edogawa),2012-10-15,01:01～02:00,0.112,0.0979,0.104,
江戸川 (Edogawa),2012-10-15,00:01～01:00,0.110,0.0972,0.103,
